Temp
71 71 70 70 69 70 70 69 69 69 68 69 68 68 68 69 70 69 70 69 69 69 69 68 69 68 69 68 68 67 67 67 67 67 68 67 67 68 69 68 67 67
71 71 71 70 70 70 69 69 69 68 68 68 68 68 69 70 70 70 69 69 69 69 69 69 68 69 68 68 67 66 65 66 66 69 67 67 67 67 68 68 68 68
71 71 70 70 69 69 69 69 69 68 67 68 69 68 69 70 69 70 69 69 68 69 68 69 68 68 68 68 67 66 65 65 65 66 66 66 66 66 67 67 68 69
70 70 70 70 69 69 69 68 68 68 68 68 68 69 70 70 69 69 69 70 68 69 68 69 68 68 68 68 67 66 66 66 66 66 66 66 66 66 67 67 68 68
71 70 70 70 70 70 69 68 68 68 68 68 69 69 69 69 68 69 69 69 68 68 68 68 68 68 68 68 68 65 66 65 66 66 65 65 66 67 68 67 67 67
71 72 72 71 70 69 68 69 69 69 69 68 67 69 68 69 69 69 69 68 69 69 69 69 69 68 68 68 67 66 66 65 66 66 66 65 66 67 69 68 67 68
70 70 69 70 70 70 69 69 69 69 69 68 70 68 69 69 69 70 70 70 70 69 70 69 68 68 68 67 67 67 66 66 67 67 66 66 66 66 68 68 68 68
69 70 70 69 69 68 68 68 68 68 68 69 68 69 69 69 70 70 69 70 70 70 70 69 69 70 69 68 67 67 66 67 66 67 66 66 66 66 66 67 66 67
69 69 69 69 68 67 67 68 68 68 69 68 68 68 69 68 68 68 69 69 69 69 69 69 69 69 69 68 67 67 67 66 66 67 66 66 65 66 67 67 66 66
69 69 68 67 66 66 66 66 67 66 68 67 67 67 67 67 68 68 68 67 67 68 68 69 68 67 68 68 68 68 67 67 68 67 67 66 66 67 67 66 66 65
68 68 67 66 66 65 65 65 65 66 66 67 67 66 67 66 66 67 66 67 66 67 67 67 67 67 67 67 67 67 67 67 67 67 67 67 67 67 68 67 66 66
67 67 66 65 65 65 65 65 65 65 66 65 66 66 65 65 65 65 65 66 67 67 67 67 67 67 67 68 67 67 66 66 66 66 67 68 68 67 67 67 66 66
66 66 65 65 65 64 65 65 65 64 65 65 66 65 65 64 65 65 65 65 66 66 66 66 66 66 66 66 66 66 66 66 65 65 66 66 67 68 67 67 67 67
66 65 65 65 65 65 65 64 64 64 64 65 65 64 64 64 64 64 65 65 65 65 65 65 65 65 65 65 65 65 65 65 65 64 64 65 66 67 67 66 67 67
65 65 65 65 66 65 64 63 63 63 64 64 64 64 64 64 65 65 64 65 65 65 65 65 64 63 64 64 63 64 64 64 64 64 64 64 64 65 66 66 67 67
66 65 66 65 64 64 64 64 63 63 63 63 64 64 64 65 65 65 65 64 64 64 64 63 63 63 63 60 59 63 63 63 63 63 63 63 63 63 64 65 66 66
66 65 65 65 64 64 63 64 64 64 63 63 63 64 63 64 64 63 63 63 63 63 62 62 62 63 59 53 52 53 59 60 61 61 62 62 62 62 62 63 64 66
65 65 65 65 65 65 65 65 65 64 64 63 62 62 62 62 61 62 62 62 62 62 61 61 62 60 53 51 50 50 53 58 59 60 60 61 61 61 62 62 63 63
65 65 65 65 65 65 65 65 64 63 63 62 61 62 61 61 61 61 61 62 61 61 61 61 61 57 52 52 52 51 50 54 59 60 60 60 60 61 61 61 62 62
65 64 64 64 64 64 64 64 63 62 61 61 61 61 60 60 60 60 61 61 61 61 60 61 61 59 53 52 51 49 49 50 57 58 59 60 60 60 61 61 61 61
63 63 63 64 64 64 63 62 61 60 61 61 61 60 60 60 59 60 60 60 60 60 60 60 61 56 50 47 46 46 46 47 54 57 58 59 60 60 61 61 61 61
63 62 62 62 63 63 62 61 60 60 59 60 60 60 60 60 60 60 59 59 59 59 58 58 59 52 50 50 49 49 49 54 55 56 57 58 59 60 61 61 62 61
62 62 61 61 61 60 60 59 59 59 59 60 59 59 59 59 58 58 58 58 57 57 55 54 55 53 48 47 47 47 49 54 54 55 56 57 58 60 61 61 61 62
61 61 60 59 59 58 57 57 58 59 59 60 58 58 57 58 58 57 57 56 54 54 55 54 55 54 50 49 48 46 50 53 53 53 54 55 56 59 60 61 62 64
59 57 56 55 55 56 56 56 57 57 58 59 58 58 57 57 57 56 56 56 55 55 57 56 55 54 50 48 47 47 49 52 52 52 52 53 54 56 58 60 61 61
56 55 54 54 54 55 55 55 56 56 56 56 57 57 56 55 54 53 52 53 54 54 54 55 54 54 54 49 48 47 46 51 52 51 51 51 53 54 55 57 59 60
MSLP
1011.99 1012.15 1012.27 1012.35 1012.43 1012.43 1012.43 1012.47 1012.39 1012.47 1012.39 1012.27 1012.27 1012.23 1012.19 1012.03 1011.87 1011.83 1011.79 1011.71 1011.71 1011.71 1011.67 1011.67 1011.67 1011.71 1011.67 1011.71 1011.67 1011.63 1011.59 1011.51 1011.39 1011.27 1011.15 1011.07 1011.03 1010.95 1010.95 1010.95 1011.03 1011.11
1011.79 1011.95 1012.03 1012.11 1012.19 1012.15 1012.11 1012.07 1012.15 1012.15 1012.15 1012.03 1011.99 1011.99 1011.87 1011.79 1011.71 1011.63 1011.59 1011.59 1011.51 1011.47 1011.43 1011.43 1011.47 1011.47 1011.47 1011.51 1011.51 1011.47 1011.47 1011.43 1011.39 1011.15 1011.07 1010.95 1010.87 1010.71 1010.63 1010.59 1010.59 1010.55
1011.55 1011.71 1011.83 1011.95 1011.95 1011.95 1011.87 1011.83 1011.83 1011.83 1011.83 1011.75 1011.71 1011.67 1011.67 1011.55 1011.51 1011.43 1011.39 1011.35 1011.31 1011.23 1011.23 1011.23 1011.23 1011.23 1011.27 1011.27 1011.27 1011.27 1011.31 1011.31 1011.27 1011.07 1010.95 1010.83 1010.67 1010.59 1010.39 1010.23 1010.15 1010.15
1011.31 1011.39 1011.47 1011.51 1011.51 1011.55 1011.51 1011.55 1011.55 1011.51 1011.47 1011.47 1011.47 1011.35 1011.31 1011.23 1011.19 1011.15 1011.11 1011.07 1011.07 1011.07 1011.03 1010.99 1010.95 1010.91 1010.91 1010.91 1010.95 1010.99 1010.99 1010.99 1010.99 1010.95 1010.87 1010.67 1010.51 1010.35 1010.19 1009.99 1009.83 1009.75
1011.03 1011.07 1011.11 1011.15 1011.11 1011.11 1011.15 1011.27 1011.27 1011.23 1011.19 1011.07 1010.99 1010.99 1010.95 1010.95 1010.95 1010.87 1010.83 1010.83 1010.79 1010.75 1010.75 1010.71 1010.67 1010.67 1010.59 1010.59 1010.55 1010.59 1010.59 1010.63 1010.63 1010.67 1010.71 1010.63 1010.39 1010.23 1009.95 1009.79 1009.67 1009.55
1010.67 1010.75 1010.79 1010.87 1010.83 1010.91 1010.99 1010.99 1010.91 1010.87 1010.83 1010.79 1010.75 1010.67 1010.67 1010.59 1010.63 1010.59 1010.55 1010.51 1010.47 1010.47 1010.43 1010.35 1010.35 1010.27 1010.27 1010.23 1010.19 1010.19 1010.19 1010.27 1010.23 1010.23 1010.31 1010.35 1010.27 1010.07 1009.83 1009.59 1009.39 1009.27
1010.51 1010.51 1010.59 1010.55 1010.59 1010.59 1010.67 1010.63 1010.59 1010.55 1010.55 1010.47 1010.39 1010.43 1010.39 1010.39 1010.35 1010.31 1010.19 1010.11 1010.07 1010.03 1010.03 1010.03 1010.03 1009.95 1009.87 1009.83 1009.79 1009.75 1009.71 1009.75 1009.71 1009.75 1009.87 1009.87 1009.91 1009.83 1009.71 1009.51 1009.31 1009.07
1010.15 1010.19 1010.23 1010.27 1010.35 1010.35 1010.43 1010.39 1010.39 1010.39 1010.35 1010.31 1010.31 1010.19 1010.15 1010.11 1009.99 1009.91 1009.83 1009.75 1009.63 1009.51 1009.43 1009.47 1009.51 1009.43 1009.35 1009.31 1009.31 1009.35 1009.35 1009.31 1009.31 1009.31 1009.39 1009.43 1009.47 1009.55 1009.51 1009.39 1009.19 1008.99
1009.91 1009.99 1010.03 1010.07 1010.15 1010.19 1010.27 1010.23 1010.19 1010.15 1010.11 1010.11 1010.07 1010.03 1009.95 1009.95 1009.87 1009.79 1009.71 1009.63 1009.51 1009.35 1009.27 1009.23 1009.15 1009.07 1008.99 1008.91 1008.95 1008.95 1008.95 1009.03 1009.03 1008.99 1008.95 1008.95 1009.03 1009.11 1009.11 1009.03 1008.99 1008.87
1009.79 1009.83 1009.91 1009.99 1010.11 1010.11 1010.19 1010.19 1010.19 1010.19 1010.11 1010.07 1009.95 1009.91 1009.83 1009.75 1009.75 1009.67 1009.63 1009.59 1009.47 1009.35 1009.19 1008.95 1008.87 1008.95 1008.87 1008.79 1008.75 1008.67 1008.59 1008.51 1008.59 1008.59 1008.55 1008.51 1008.51 1008.51 1008.55 1008.63 1008.67 1008.67
1009.67 1009.75 1009.83 1009.91 1009.99 1010.07 1010.15 1010.15 1010.15 1010.15 1010.03 1009.91 1009.79 1009.67 1009.59 1009.55 1009.47 1009.47 1009.47 1009.35 1009.23 1009.11 1009.03 1008.91 1008.83 1008.75 1008.63 1008.43 1008.39 1008.43 1008.39 1008.27 1008.15 1008.19 1008.19 1008.07 1008.03 1008.03 1008.11 1008.23 1008.23 1008.23
1009.55 1009.59 1009.71 1009.79 1009.91 1009.99 1009.99 1009.95 1009.83 1009.79 1009.67 1009.59 1009.59 1009.55 1009.51 1009.47 1009.43 1009.35 1009.31 1009.19 1009.03 1008.87 1008.79 1008.63 1008.55 1008.43 1008.31 1008.15 1008.07 1008.07 1008.03 1007.95 1007.87 1007.79 1007.75 1007.67 1007.51 1007.47 1007.55 1007.71 1007.83 1007.87
1009.47 1009.51 1009.59 1009.67 1009.67 1009.67 1009.63 1009.51 1009.39 1009.47 1009.51 1009.47 1009.43 1009.39 1009.35 1009.31 1009.19 1009.15 1009.07 1008.99 1008.83 1008.75 1008.59 1008.43 1008.31 1008.19 1008.15 1008.07 1007.95 1007.91 1007.87 1007.75 1007.63 1007.59 1007.55 1007.43 1007.27 1007.11 1007.03 1007.11 1007.23 1007.31
1009.31 1009.35 1009.43 1009.39 1009.31 1009.23 1009.15 1009.15 1009.19 1009.23 1009.31 1009.27 1009.23 1009.23 1009.19 1009.07 1009.03 1008.95 1008.83 1008.71 1008.59 1008.51 1008.35 1008.27 1008.19 1008.03 1007.95 1007.95 1007.91 1007.79 1007.71 1007.63 1007.47 1007.35 1007.27 1007.19 1007.07 1006.91 1006.75 1006.71 1006.71 1006.79
1009.15 1009.19 1009.19 1009.03 1008.87 1008.87 1008.95 1009.03 1009.11 1009.15 1009.15 1009.07 1009.03 1008.95 1008.79 1008.71 1008.59 1008.51 1008.43 1008.31 1008.19 1008.11 1007.95 1007.83 1007.79 1007.71 1007.67 1007.67 1007.67 1007.59 1007.55 1007.43 1007.27 1007.15 1007.07 1006.99 1006.87 1006.83 1006.67 1006.51 1006.39 1006.39
1008.91 1008.87 1008.75 1008.71 1008.79 1008.79 1008.71 1008.67 1008.71 1008.71 1008.67 1008.59 1008.47 1008.39 1008.27 1008.15 1008.03 1007.95 1007.87 1007.79 1007.75 1007.71 1007.59 1007.51 1007.35 1007.23 1007.19 1007.27 1007.31 1007.31 1007.31 1007.27 1007.15 1007.07 1006.99 1006.91 1006.83 1006.71 1006.63 1006.47 1006.19 1006.03
1008.63 1008.55 1008.51 1008.51 1008.39 1008.27 1008.23 1008.19 1008.11 1007.99 1007.95 1007.91 1007.83 1007.79 1007.75 1007.63 1007.59 1007.55 1007.51 1007.47 1007.35 1007.27 1007.15 1007.07 1006.95 1006.83 1006.83 1006.91 1006.99 1007.07 1007.07 1007.03 1006.95 1006.87 1006.79 1006.75 1006.67 1006.67 1006.55 1006.47 1006.23 1006.03
1008.43 1008.31 1008.19 1008.03 1007.91 1007.83 1007.71 1007.59 1007.43 1007.35 1007.39 1007.43 1007.39 1007.43 1007.39 1007.35 1007.35 1007.27 1007.15 1007.11 1006.99 1006.87 1006.75 1006.63 1006.51 1006.47 1006.51 1006.55 1006.63 1006.71 1006.79 1006.79 1006.63 1006.55 1006.47 1006.43 1006.39 1006.35 1006.27 1006.15 1005.99 1005.87
1008.23 1008.15 1007.95 1007.71 1007.63 1007.51 1007.43 1007.19 1007.11 1007.11 1007.15 1007.19 1007.15 1007.03 1006.99 1006.99 1006.91 1006.87 1006.75 1006.63 1006.51 1006.35 1006.23 1006.15 1006.03 1006.03 1006.15 1006.15 1006.19 1006.23 1006.27 1006.31 1006.11 1006.03 1006.03 1005.95 1005.99 1005.99 1005.95 1005.91 1005.79 1005.67
1007.99 1007.95 1007.87 1007.63 1007.39 1007.27 1007.07 1006.91 1006.95 1006.95 1006.95 1006.91 1006.83 1006.75 1006.67 1006.55 1006.43 1006.35 1006.23 1006.11 1005.99 1005.91 1005.75 1005.67 1005.59 1005.55 1005.59 1005.59 1005.67 1005.75 1005.83 1005.91 1005.79 1005.63 1005.55 1005.47 1005.43 1005.47 1005.51 1005.47 1005.43 1005.39
1008.03 1007.83 1007.63 1007.31 1007.11 1006.95 1006.83 1006.79 1006.87 1006.83 1006.83 1006.75 1006.59 1006.43 1006.31 1006.15 1006.03 1005.87 1005.75 1005.67 1005.63 1005.59 1005.39 1005.19 1005.11 1005.11 1005.19 1005.43 1005.63 1005.83 1005.91 1006.07 1005.87 1005.51 1005.15 1004.91 1004.79 1004.83 1004.87 1004.87 1004.91 1004.91
1007.79 1007.71 1007.51 1007.31 1007.07 1006.83 1006.71 1006.63 1006.59 1006.59 1006.59 1006.51 1006.35 1006.15 1005.95 1005.79 1005.63 1005.55 1005.43 1005.39 1005.35 1005.31 1005.15 1004.91 1004.79 1004.83 1004.83 1004.87 1004.99 1005.15 1005.31 1005.35 1005.23 1005.15 1004.87 1004.51 1004.23 1004.15 1004.19 1004.23 1004.31 1004.39
1007.67 1007.55 1007.47 1007.35 1007.19 1007.07 1006.87 1006.67 1006.47 1006.31 1006.19 1006.11 1006.03 1005.83 1005.71 1005.55 1005.39 1005.35 1005.31 1005.31 1005.23 1005.19 1005.23 1005.07 1004.87 1004.67 1004.43 1004.39 1004.51 1004.63 1004.83 1004.79 1004.71 1004.55 1004.27 1003.95 1003.59 1003.51 1003.51 1003.51 1003.59 1003.67
1007.79 1007.67 1007.47 1007.31 1007.23 1007.27 1007.19 1006.95 1006.55 1006.19 1006.03 1005.91 1005.75 1005.47 1005.35 1005.31 1005.27 1005.19 1005.15 1005.07 1004.99 1004.99 1004.79 1004.55 1004.27 1004.15 1004.07 1003.95 1003.99 1004.03 1004.19 1004.11 1003.95 1003.91 1003.59 1003.47 1003.23 1003.03 1002.87 1002.79 1002.79 1002.87
1008.03 1008.23 1008.27 1008.03 1007.75 1007.35 1007.11 1006.87 1006.55 1006.31 1006.03 1005.75 1005.51 1005.39 1005.19 1005.19 1005.11 1004.95 1004.71 1004.55 1004.43 1004.23 1003.95 1003.63 1003.27 1003.15 1003.19 1003.03 1003.03 1003.11 1003.39 1003.39 1003.27 1003.11 1002.95 1002.75 1002.75 1002.67 1002.55 1002.27 1002.15 1002.23
1008.35 1008.51 1008.43 1008.23 1007.91 1007.55 1007.27 1006.99 1006.63 1006.27 1006.03 1005.75 1005.43 1005.31 1005.15 1005.03 1004.91 1004.71 1004.51 1004.19 1003.91 1003.63 1003.23 1002.87 1002.59 1002.03 1001.87 1001.99 1002.15 1002.31 1002.59 1002.71 1002.43 1002.27 1001.99 1001.99 1002.19 1002.11 1002.07 1001.83 1001.63 1001.55
Wind_Speed
3 3 3 3 4 4 4 3 3 4 4 4 5 5 5 5 5 5 6 6 5 6 6 6 6 5 6 6 6 7 6 6 7 6 6 7 6 7 8 7 7 7
4 4 4 3 4 4 4 4 4 4 5 4 5 5 5 5 5 6 6 6 7 6 7 6 6 6 6 6 6 6 6 6 8 7 8 8 7 7 8 8 8 8
3 3 4 4 4 4 5 5 5 5 5 6 6 6 6 6 7 7 7 6 7 7 6 6 7 7 7 7 7 7 6 6 8 7 7 8 8 7 7 7 7 8
5 6 5 6 5 6 6 6 6 6 6 6 7 7 6 6 6 7 7 8 8 8 7 7 7 7 7 8 7 7 7 7 6 7 8 8 7 7 7 7 7 7
4 4 4 4 5 6 6 7 7 7 7 8 7 7 7 8 8 8 8 8 8 8 8 9 8 8 8 7 7 7 7 7 6 6 7 8 8 8 8 8 9 10
4 5 5 6 5 5 5 6 6 6 7 7 7 6 7 8 8 8 8 8 8 9 9 8 8 9 8 9 8 7 7 7 7 7 8 9 9 9 9 9 9 10
5 4 5 6 6 7 7 7 7 8 8 8 9 9 10 11 12 12 13 12 12 11 11 11 13 12 8 7 9 9 8 8 8 9 9 8 8 9 9 10 11 11
5 5 5 5 6 6 7 8 9 8 8 9 9 8 8 9 11 10 10 12 12 13 13 12 13 14 12 12 12 11 9 7 8 9 9 9 8 10 9 9 9 11
4 4 5 5 6 5 6 7 7 8 8 8 9 9 9 9 10 10 11 11 13 14 13 12 11 11 10 10 9 10 11 10 10 11 10 9 9 9 10 9 10 10
4 4 5 6 6 6 7 6 7 8 9 10 10 9 11 10 10 11 12 12 12 13 14 13 13 13 14 11 12 12 11 12 11 11 9 9 10 10 10 9 10 11
5 5 6 6 6 5 7 9 9 10 10 13 11 9 9 9 9 9 11 12 11 12 13 14 13 14 15 14 12 11 13 13 13 13 13 13 11 10 9 10 10 10
5 5 5 5 7 8 9 10 11 12 9 6 9 11 11 10 10 9 10 11 12 13 13 14 14 13 13 14 14 13 12 12 11 11 12 12 11 10 10 10 10 11
6 6 6 7 8 8 9 10 7 5 9 10 8 10 10 10 10 11 11 12 13 12 13 13 13 13 12 13 14 13 14 14 12 12 13 11 9 11 10 9 10 10
7 6 7 9 9 10 9 6 8 8 8 8 9 10 10 11 11 11 11 11 11 12 13 12 12 13 13 13 13 12 11 12 12 11 11 11 10 10 9 9 9 9
6 6 9 10 8 6 7 8 8 9 10 11 10 11 10 10 11 12 13 13 13 13 13 12 12 12 11 11 11 12 11 11 11 11 11 11 10 10 10 10 10 9
9 9 7 6 8 9 9 9 9 10 11 11 12 12 12 13 13 13 13 13 13 14 13 12 11 10 13 16 15 12 13 12 12 13 13 12 11 9 9 10 10 9
9 9 9 10 10 10 9 10 12 11 10 10 10 10 10 10 9 11 11 11 12 12 13 11 10 10 15 14 15 17 13 12 12 11 11 11 11 11 11 11 11 10
10 10 11 11 10 11 11 12 11 9 8 9 8 8 8 9 10 11 12 12 12 13 13 12 12 13 16 15 14 15 13 11 11 11 11 12 12 12 11 10 10 10
10 11 12 12 11 12 12 11 9 9 10 10 11 10 9 11 12 13 14 13 14 15 14 13 12 14 16 18 19 19 18 15 13 14 14 14 13 13 13 12 10 10
11 11 13 13 12 12 11 10 9 10 10 9 10 10 11 12 13 14 14 14 13 13 14 14 15 16 19 20 18 17 17 15 14 15 15 15 15 14 13 13 12 12
12 13 14 14 12 12 11 10 10 10 11 10 10 10 11 11 11 12 11 10 11 12 12 12 11 17 13 10 10 12 12 11 9 13 14 14 15 14 15 14 13 13
13 12 13 14 14 13 12 11 10 10 12 11 11 11 11 11 11 11 12 13 13 14 15 14 13 15 17 20 22 22 23 15 12 15 15 16 16 15 15 14 14 14
13 14 13 14 14 14 14 14 12 11 10 9 11 12 12 12 11 11 10 12 14 14 14 16 15 16 14 14 16 19 18 14 10 10 12 15 16 16 16 15 14 14
13 14 15 14 13 13 14 13 13 11 11 10 11 12 11 10 11 12 12 12 13 14 14 14 13 15 19 20 20 19 17 14 11 12 17 18 16 15 14 14 16 27
11 12 13 14 14 14 13 14 13 12 12 11 10 11 12 10 11 12 13 12 12 15 20 21 17 17 21 22 22 21 16 12 13 12 12 13 12 15 15 14 14 17
12 14 14 15 16 15 13 13 13 12 12 12 11 11 11 11 13 13 16 15 15 17 16 18 19 20 21 24 22 21 22 15 11 13 15 16 16 15 15 15 15 15
Wind_Direction
191 183 203 206 215 218 222 229 230 245 244 245 246 249 254 261 265 268 266 266 267 269 270 268 264 267 268 273 277 278 277 279 283 279 273 270 267 264 254 244 236 238
187 198 207 219 227 229 239 233 241 241 251 255 259 265 264 269 266 265 268 269 271 271 272 272 272 269 269 270 272 273 281 287 285 284 284 278 272 271 262 250 245 238
216 224 224 226 226 235 242 245 248 253 255 256 260 260 267 269 273 272 274 273 271 272 271 269 268 267 268 268 267 268 269 278 281 282 281 281 280 274 269 266 258 239
214 220 227 232 235 244 244 250 249 249 248 251 249 251 255 257 258 263 265 269 274 274 276 275 268 262 257 259 260 258 257 261 271 282 284 285 282 277 275 272 263 267
233 236 236 238 240 243 246 246 251 251 253 255 257 258 261 262 264 265 264 264 265 265 264 264 268 272 269 260 257 257 251 251 252 261 273 279 278 277 274 268 264 260
230 241 249 261 266 268 265 261 260 260 262 264 260 260 257 261 263 265 264 266 268 272 271 271 269 263 262 268 266 257 251 246 244 245 253 264 273 275 279 276 274 269
237 236 248 252 258 257 260 262 263 265 266 265 268 264 267 268 270 270 270 268 266 265 267 268 267 265 263 262 257 258 256 253 249 250 256 256 264 271 277 283 281 279
243 244 250 255 262 266 269 274 275 278 282 285 285 284 281 279 275 273 275 278 274 265 257 256 265 272 265 255 259 265 266 261 261 253 248 255 257 264 268 274 280 281
259 262 264 267 271 273 276 278 281 280 278 277 279 283 284 287 292 294 292 291 290 289 288 287 283 276 278 279 273 269 273 278 278 266 253 251 250 253 258 261 267 274
272 282 283 286 285 289 292 301 303 302 299 292 289 287 284 282 285 288 289 285 284 289 291 284 280 282 280 284 287 282 276 272 271 275 266 248 247 247 251 253 259 266
279 280 282 284 291 298 296 295 293 290 283 277 277 282 290 289 280 279 279 278 278 281 283 283 282 282 279 276 278 282 278 271 265 266 269 263 255 258 261 264 263 262
269 275 279 290 292 286 279 274 268 263 268 286 296 288 281 280 284 285 284 284 283 279 275 276 280 279 279 278 273 273 277 278 275 272 272 272 258 242 242 247 258 261
279 276 277 273 266 269 268 262 263 296 298 292 291 293 293 289 284 284 282 280 281 280 281 280 278 277 278 280 281 278 277 277 279 279 278 274 268 256 247 243 249 256
274 273 271 268 268 262 265 295 307 297 291 288 283 279 277 276 281 280 279 280 278 278 278 280 282 281 279 280 281 283 282 280 274 273 276 277 273 265 252 243 243 249
279 279 270 265 268 289 301 297 291 285 277 273 273 275 271 271 269 270 272 271 273 274 273 269 266 267 270 272 277 278 281 283 284 282 280 276 274 278 275 261 252 249
268 261 268 295 299 286 277 267 262 262 260 259 258 258 261 261 260 260 262 266 268 271 272 271 265 263 263 264 263 267 271 274 275 277 279 283 286 286 283 279 265 250
277 282 276 263 258 255 256 258 256 255 254 254 259 263 267 272 276 278 277 276 273 270 267 266 268 269 269 266 266 266 268 269 269 270 275 277 278 278 276 272 272 268
270 272 272 276 279 281 278 268 264 263 269 275 275 276 279 281 280 278 277 274 271 270 268 269 269 268 268 266 262 262 260 263 268 270 269 270 268 267 267 266 262 262
293 292 290 290 289 287 281 281 288 292 289 285 283 281 279 274 273 272 269 267 264 264 265 266 269 266 265 267 267 266 264 263 267 268 267 265 261 260 260 262 263 259
292 290 287 283 281 281 286 296 301 291 282 278 280 277 271 268 265 264 265 264 265 268 269 267 266 267 259 254 254 255 257 256 257 260 260 259 257 255 255 256 254 255
291 292 287 289 291 289 288 289 290 292 293 288 282 279 277 274 274 274 272 277 280 276 273 269 264 264 274 290 291 282 278 275 266 265 259 256 253 251 251 250 251 251
292 294 298 304 304 300 298 292 282 278 280 284 284 282 279 278 278 279 280 278 277 279 277 275 273 264 267 272 274 275 274 272 261 262 262 260 256 251 248 246 246 247
302 297 292 290 292 301 300 297 295 287 282 281 281 280 278 278 282 282 285 285 284 282 280 274 269 264 258 256 257 258 260 258 249 245 252 257 255 251 248 244 240 240
296 300 303 304 303 301 303 301 296 292 288 284 278 277 278 281 282 281 277 272 268 266 266 267 268 266 269 266 258 250 244 248 240 243 250 252 256 254 249 243 241 242
319 325 319 313 310 301 296 294 297 299 298 293 292 295 292 293 289 285 283 278 274 273 268 263 263 262 254 250 248 246 244 242 241 241 242 239 240 248 251 249 244 241
314 313 310 308 304 301 301 300 299 296 293 293 292 290 286 282 284 282 279 275 269 265 263 261 260 258 250 244 246 247 240 241 233 235 238 238 241 244 243 246 246 240